{"data":{"norad_id":55434,"epoch":"2026-05-25T02:23:39.821280Z","epoch_age_seconds":69446,"freshness":"FRESH","line1":"1 55434U 23014AV  26145.09976645  .00000451  00000+0  45553-4 0  9990","line2":"2 55434  69.9990 271.8159 0003141 269.2920  90.7879 14.98331332182511","mean_motion":14.98331332,"eccentricity":0.0003141,"inclination_deg":69.999,"raan_deg":271.8159,"arg_perigee_deg":269.292,"mean_anomaly_deg":90.7879,"bstar":4.5553e-5,"rev_number":18251,"period_min":96.106913687633,"perigee_km":569.86871755411,"apogee_km":574.23482614058,"semimajor_km":6950.1887718473,"source":"CELESTRAK","updated_at":"2026-05-25T13:38:17.800850Z"}}